Location: Lombray
(49.5154°N, 3.1089°E)
Time: 20:19:26
(UTC+00:00)

Cosmos 990 Rocket - Pass Details

Date: 15 May 2026
Orbit: 742 x 763 km, 74.0° (Epoch: 8 June)

Event Time Altitude Azimuth Distance (km) Brightness Sun altitude
Rises 21:15:25 0° 338° (NNW) 3,207 8.9 -14.0°
Reaches altitude 10° 21:17:49 10° 343° (NNW) 2,282 7.7 -14.2°
Maximum altitude 21:22:55 58° 62° (ENE) 882 4.3 -14.7°
Enters shadow 21:26:04 23° 134° (SE) 1,574 5.0 -14.9°
